Preview of NWS' New Version of Forecast
This preview is not operational and should not be used for support decisions.
Latest weather observations around

Houston, Houston Hobby Airport (KHOU)

Using International System of Units (Switch to English Units)
Date/ Time (CST) Wind (kph) Vis. (km) Weather Sky Cond. Temp (°C) Rel. Humidity Wind Chill (°C) Heat Index (°C) Pressure Precip. (cm)
Air Dwpt 6 hour Altimeter (hPa) Sea level (hPa) 1 hr 3 hr 6 hr
Max Min
Feb 20 04:53 NNW 17 14.48 Light Rain BKN008 BKN012 OVC027 8 7     90% 6   1012.9 1013.3 0    
Feb 20 03:53 NNW 15 16.09 Cloudy BKN008 BKN012 OVC020 8 7     90% 6   1012.2 1012.6 0    
Feb 20 03:34 NNW 18 14.48 Cloudy SCT006 OVC020 8 7     90% 5   1012.2   0    
Feb 20 02:53 NW 17 11.27 Light Drizzle OVC005 8 7     93% 6   1012.2 1012.6 0 0  
Feb 20 01:53 NW 15 4.83 Light Drizzle and Fog/Mist BKN005 OVC009 9 8     93% 7   1011.5 1011.9 0    
Feb 20 00:53 NW 15 8.05 Fog/Mist OVC004 9 8     93% 7   1011.2 1011.6      
Feb 19 23:53 NNW 9 8.05 Fog/Mist OVC003 9 9     97% 8   1010.5 1011     0
Feb 19 22:53 N 11 6.44 Fog/Mist OVC003 9 9     97% 8   1009.8 1010.3      
Feb 19 21:53 N 13 8.05 Clear   9 8     93% 7   1009.8 1010.2      
Feb 19 21:18 N 15 8.05 Fog/Mist OVC004 9 9     97% 7   1009.8        
Feb 19 20:53 N 17 9.66 Fog/Mist OVC005 9 8     93% 7   1009.8 1010.2 0 0  
Feb 19 20:35 N 17 9.66 Fog/Mist OVC005 9 9     97% 7   1009.8   0    
Feb 19 19:53 NNW 13 4.83 Fog/Mist OVC004 10 9     93%     1009.8 1010.2      
Feb 19 19:20 N 15 3.22 Fog/Mist OVC004 10 9     93%     1009.2        
Feb 19 18:53 N 21 2.82 Fog/Mist OVC004 10 9     93%     1008.8 1009.4 0    
Feb 19 17:53 N 13 2.82 Fog/Mist OVC004 11 9     92%     1008.8 1009.1 0   0
Feb 19 16:53 NE 15 2.41 Fog/Mist OVC004 11 9     92%     1008.5 1009 0    
Feb 19 15:53 N 17 2.01 Fog/Mist OVC003 11 9     92%     1009.2 1009.6      
Feb 19 14:53 NE 15 2.41 Fog/Mist OVC003 11 10     96%     1009.8 1010.3   0  
Feb 19 14:12 ENE 11 3.22 Fog/Mist OVC004 11 9     92%     1010.5        
Feb 19 13:53 ENE 21 2.41 Fog/Mist OVC004 11 9     92%     1010.5 1011.1      
Feb 19 13:46 ENE 18 2.41 Fog/Mist OVC004 10 9     93%     1010.8        
Feb 19 13:41 ENE 22 2.82 Fog/Mist OVC005 10 9     93%     1011.2        
Feb 19 12:53 ENE 18 3.22 Fog/Mist OVC005 10 8     89%     1012.9 1013.3 0    
Feb 19 12:18 NE 15 3.22 Light Rain and Fog/Mist OVC005 10 8     89%     1013.9   0    
Feb 19 11:53 ENE 21 4.83 Fog/Mist OVC006 9 8     90% 7   1014.6 1014.9     0
Feb 19 11:33 ENE 21 8.05 Fog/Mist OVC009 9 8     90% 7   1014.9        
Feb 19 11:01 ENE 26 12.87 Cloudy OVC010 10 8     86%     1015.6        
Feb 19 10:53 ENE 21 12.87 Cloudy OVC008 9 7     86% 7   1015.9 1016.4      
Feb 19 10:18 ENE 18 11.27 Cloudy OVC008 9 7     89% 6   1015.9        
Feb 19 09:53 ENE 22 11.27 Cloudy OVC010 9 7     86% 6   1016.3 1016.5 0    
Feb 19 08:53 NE 21 16.09 Cloudy BKN013 OVC018 9 7     86% 6   1016.6 1017.1   0  
Feb 19 08:42 NE 18 16.09 Cloudy BKN013 OVC018 9 7     86% 6   1016.6        
Feb 19 08:18 NE 18 16.09 Cloudy OVC016 9 7     86% 6   1016.6        
Feb 19 08:03 NE 18 14.48 Cloudy OVC014 9 7     86% 6   1016.6        
Feb 19 07:53 ENE 21 14.48 Cloudy OVC015 9 7     86% 6   1016.6 1016.9      
Feb 19 06:53 ENE 18 16.09 Cloudy SCT008 OVC017 8 7     90% 5   1016.6 1017.1 0    
Feb 19 06:11 NE 22 6.44 Clear   8 7     90% 5   1016.9   0    
Feb 19 05:53 NE 22 11.27 Clear   8 7     90% 5   1017.3 1017.7 0    
Feb 19 05:37 NE 21 9.66 Light Rain and Fog/Mist SCT009 BKN028 OVC040 9 7     89% 6   1017.6   0    
Feb 19 04:53 ENE 24 11.27 Light Rain BKN035 OVC042 9 7     83% 6   1018 1018.2 0    
Feb 19 04:35 ENE 28 12.87 Light Rain SCT025 BKN034 OVC042 10 6     74%     1018   0    
Feb 19 03:53 ENE 24 16.09 Cloudy OVC027 11 3     59%     1018.3 1018.7      
Feb 19 03:19 ENE 18 16.09 Cloudy OVC028 12 3     54%     1019        
Feb 19 02:53 NE 21 16.09 Cloudy OVC030 12 2     52%     1019.3 1019.6      
Feb 19 01:53 NE 18 16.09 Cloudy OVC031 11 2     54%     1019.3 1019.6      
Feb 19 00:53 NE 18 16.09 Cloudy OVC033 11 2     52%     1020.3 1020.6      
Feb 18 23:53 NE 17 16.09 Cloudy OVC030 11 2     52%     1020.3 1020.8      
Feb 18 22:53 NNE 24 16.09 Cloudy OVC031 12 2     52%     1021 1021.3      
Feb 18 21:53 NE 22 16.09 Cloudy FEW035 BKN043 OVC090 13 2     48%     1021 1021.6      
Feb 18 20:53 NE 21 16.09 Mostly Cloudy SCT075 BKN095 BKN250 13 1     43%     1020.7 1021      
Feb 18 19:53 NE 24 16.09 Partly Cloudy SCT250 14 2     42%     1020 1020.4      
Feb 18 18:53 NE 24 16.09 Mostly Cloudy FEW140 BKN250 16 1     36%     1019.3 1019.7      
Feb 18 17:53   16.09 Mostly Cloudy FEW140 BKN250 17 1     34%     1019.3 1019.8      
Feb 18 16:53   16.09 Mostly Cloudy FEW140 BKN250 18 1     30%     1019 1019.4      
Feb 18 15:53 NE 21 16.09 Mostly Cloudy FEW140 BKN250 18 1     32%     1019.3 1019.7      
Feb 18 14:53 NE 24 16.09 Mostly Cloudy FEW080 FEW140 BKN250 19 1     30%     1019.3 1019.8      
Feb 18 13:53   16.09 Mostly Cloudy FEW080 FEW140 BKN250 18 2     34%     1019.7 1020.1      
Feb 18 12:53 NE 18 16.09 Mostly Cloudy FEW080 SCT140 BKN250 17 2     38%     1020.3 1020.9      
Feb 18 11:53 NNE 26 16.09 Mostly Cloudy SCT140 BKN250 16 2     40%     1021 1021.5      
Feb 18 10:53 ENE 26 16.09 Mostly Cloudy FEW080 BKN140 BKN250 14 1     39%     1021.7 1022      
Feb 18 09:53 NE 30 16.09 Partly Cloudy FEW150 SCT250 12 1     47%     1021.7 1022      
Feb 18 08:53   16.09 Partly Cloudy SCT150 SCT250 10 2     58%     1021.3 1021.8      
Feb 18 07:53 NE 30 16.09 Mostly Cloudy BKN150 BKN250 9 2     63% 5   1020.7 1021.2      
Feb 18 06:53 NE 28 16.09 Mostly Cloudy BKN150 BKN250 9 2     63% 5   1019.7 1019.9      
Feb 18 05:53 NE 28 16.09 Mostly Cloudy FEW065 BKN150 BKN250 9 2     63% 5   1019 1019.3      
Feb 18 04:53 NE 24 16.09 Mostly Cloudy BKN065 BKN250 9 3     66% 6   1018.3 1018.7      
Feb 18 03:53 NE 30 16.09 Mostly Cloudy BKN060 BKN250 9 3     63% 6   1018.3 1018.8      
Feb 18 02:53   16.09 Clear   10 3     61%     1018 1018.3      
Feb 18 01:53 NNE 22 16.09 Partly Cloudy SCT060 SCT250 9 3     66% 6   1018 1018.3      
Feb 18 00:53   16.09 Partly Cloudy FEW050 SCT250 10 4     66%     1017.6 1018      
Feb 17 23:53 NNE 18 16.09 Partly Cloudy FEW050 SCT250 10 4     66%     1016.3 1016.7      
Feb 17 22:53 NE 26 16.09 Partly Cloudy SCT250 11 4     65%     1015.6 1015.9      
Feb 17 21:53   16.09 Partly Cloudy SCT250 11 5     66%     1014.6 1015      
Feb 17 20:53 NNE 28 16.09 Partly Cloudy SCT250 12 6     64%     1014.2 1014.8      
Feb 17 19:53 N 21 16.09 Partly Cloudy SCT250 13 6     64%     1013.6 1014.1      
Feb 17 18:53 N 26 16.09 Mostly Cloudy BKN250 14 6     59%     1012.5 1013      
Feb 17 17:53 N 28 16.09 Mostly Cloudy FEW075 SCT150 BKN250 16 8     60%     1011.2 1011.5      
Feb 17 16:53 NNE 26 16.09 Mostly Cloudy FEW070 SCT150 BKN250 17 8     58%     1010.5 1010.8      
Feb 17 15:53 NNE 22 16.09 Cloudy OVC080 16 10     67%     1009.8 1010.2      
Feb 17 14:53 N 24 16.09 Cloudy FEW015 SCT060 OVC075 15 11     75%     1009.8 1010.1      
Feb 17 14:34 N 26 16.09 Cloudy SCT015 OVC060 14 11     78%     1009.8        
Feb 17 13:53 N 21 16.09 Cloudy OVC015 14 11     81%     1009.8 1010.3      
Feb 17 12:53   14.48 Cloudy OVC012 14 12     87%     1010.2 1010.6      
Feb 17 11:53 N 22 9.66 Fog/Mist BKN010 OVC018 16 14     87%     1009.8 1010.1 0   0
Feb 17 11:38 N 30 9.66 Light Rain and Fog/Mist BKN010 OVC018 16 14     87%     1009.8   0    
Feb 17 10:53 N 22 6.44 Fog/Mist OVC007 17 15     90%     1009.2 1009.6 0    
Feb 17 09:53 N 15 9.66 Fog/Mist BKN008 OVC015 17 16     93%     1008.8 1009.1 0    
Feb 17 09:46 N 17 9.66 Fog/Mist BKN008 OVC035 18 16     90%     1008.5   0    
Feb 17 09:15 N 17 4.02 Fog/Mist BKN006 OVC013 17 16     93%     1008.1   0    
Feb 17 08:53 NNW 13 3.22 Light Rain and Fog/Mist SCT006 BKN013 OVC024 17 16     93%     1008.1 1008.4 0 0  
Feb 17 08:42 NNW 15 3.22 Light Rain and Fog/Mist SCT006 BKN013 OVC024 17 16     93%     1007.8   0    
Feb 17 08:10 NNW 9 2.41 Light Rain and Fog/Mist SCT006 OVC019 18 17     93%     1007.5   0    
Feb 17 07:53 N 9 3.22 Fog/Mist FEW007 OVC023 18 17     93%     1007.1 1007.5 0    
Feb 17 07:46 N 11 11.27 Cloudy FEW007 OVC023 18 17     93%     1007.1   0    
Feb 17 07:20 N 17 8.05 Light Rain and Fog/Mist BKN007 OVC023 18 17     93%     1007.1   0    
Feb 17 07:02 NW 18 4.02 Light Rain and Fog/Mist OVC005 18 17     93%     1006.8   0    
Feb 17 06:53 NW 21 4.83 Light Rain and Fog/Mist BKN005 OVC010 18 17     90%     1006.4 1007 0    
Feb 17 05:53 W 9 9.66 Fog/Mist BKN008 OVC013 22 19     87%   22 1005.4 1005.9      
May 14 04:53 ESE 5 16.09 Clear   22 22     100%   23 1014.6 1014.9      
May 12 17:53 SE 18 16.09 Partly Cloudy SCT040 30 22     61%   33 1014.2 1014.6      
May 12 04:37 SSE 8 16.09 Partly Cloudy SCT016 SCT040 23 23     97%   24 1014.9        
May 12 01:53 9 16.09 Partly Cloudy SCT030 SCT250 24 23     94%   25 1015.2 1015.5      
May 11 16:53 SE 26 16.09 Partly Cloudy SCT042 29 21     61%   31 1013.9 1014.3      
May 11 07:53 SSE 9 16.09 Mostly Clear FEW020 23 22     94%   24 1015.9 1016.3      
Jun 12 04:53 ESE 8 16.09 Mostly Clear FEW050 26 24     93%   27 1012.5 1012.9      
Jun 11 21:53 ESE 9 16.09 Clear   27 24     82%   30 1012.9 1013.3      
Jun 11 12:53 9 16.09 Mostly Cloudy SCT031 BKN050 BKN070 30 23     67%   34 1013.6 1013.9      
Jun 08 18:53 NE 13 16.09 Clear   30 16     42%   30 1010.8 1011.4      
Jun 08 03:53 ENE 8 16.09 Clear CLR 23 16     64%   23 1012.9 1013.2      
Jun 05 22:53 Calm 16.09 Mostly Cloudy SCT024 BKN100 BKN250 23 22     94%   24 1007.1 1007.6 0